When you browse on this site, cookies collect data to enhance your experience and personalize the content and advertising you see.
Visit our Privacy Policy to learn more. By continuing to use the site, you agree to this use of cookies and data.
  • en France
  • Liste des pays
  • À 7 jours
  • Température de l'eau
  • Carte satellitaire
  • Carte météo
  • Widgets météo
  • user-avatar
    Se connecter

    Météo par heure à Igls

    Ce jour, 22 Avril, Lundi

    Heure Température Précipitation Vent Pression Humidité
    00:00 +8°C° 0 mm 3 m/s 684 mmHg 69%
    01:00 +7°C° 0 mm 3 m/s 684 mmHg 72%
    02:00 +7°C° 0 mm 3 m/s 683 mmHg 75%
    03:00 +7°C° 0 mm 3 m/s 683 mmHg 78%
    04:00 +7°C° 0 mm 3 m/s 683 mmHg 81%
    05:00 +8°C° 0 mm 3 m/s 682 mmHg 77%
    06:00 +9°C° 0 mm 3 m/s 682 mmHg 74%
    07:00 +9°C° 0 mm 3 m/s 682 mmHg 71%
    08:00 +13°C° 0 mm 2 m/s 682 mmHg 59%
    09:00 +16°C° 0 mm 2 m/s 682 mmHg 47%
    10:00 +18°C° 0 mm 2 m/s 682 mmHg 35%
    11:00 +19°C° 0 mm 2 m/s 681 mmHg 33%
    12:00 +20°C° 0 mm 2 m/s 681 mmHg 30%
    13:00 +21°C° 0 mm 2 m/s 681 mmHg 28%
    14:00 +21°C° 0 mm 2 m/s 680 mmHg 29%
    15:00 +21°C° 0 mm 2 m/s 679 mmHg 30%
    16:00 +21°C° 0 mm 2 m/s 679 mmHg 31%
    17:00 +18°C° 0 mm 2 m/s 678 mmHg 41%
    18:00 +16°C° 0 mm 2 m/s 677 mmHg 50%
    19:00 +13°C° 0 mm 2 m/s 677 mmHg 60%
    20:00 +12°C° 0 mm 2 m/s 676 mmHg 65%
    21:00 +10°C° 0 mm 3 m/s 676 mmHg 70%
    22:00 +9°C° 0 mm 3 m/s 676 mmHg 75%
    23:00 +9°C° 0 mm 3 m/s 676 mmHg 76%

    Demain, 23 Avril, Mardi

    Heure Température Précipitation Vent Pression Humidité
    00:00 +9°C° 0 mm 3 m/s 676 mmHg 77%
    01:00 +7°C° 0 mm 4 m/s 675 mmHg 78%
    02:00 +8°C° 0 mm 3 m/s 675 mmHg 78%
    03:00 +8°C° 0 mm 3 m/s 674 mmHg 78%
    04:00 +7°C° 0 mm 3 m/s 674 mmHg 77%
    05:00 +8°C° 0 mm 3 m/s 674 mmHg 74%
    06:00 +9°C° 0 mm 3 m/s 674 mmHg 71%
    07:00 +10°C° 0 mm 3 m/s 674 mmHg 69%
    08:00 +12°C° 0 mm 3 m/s 674 mmHg 62%
    09:00 +14°C° 0 mm 3 m/s 674 mmHg 56%
    10:00 +17°C° 0 mm 3 m/s 675 mmHg 49%
    11:00 +18°C° 0 mm 3 m/s 675 mmHg 48%
    12:00 +18°C° 0 mm 3 m/s 675 mmHg 47%
    13:00 +19°C° 0 mm 3 m/s 675 mmHg 46%
    14:00 +19°C° 0 mm 3 m/s 675 mmHg 46%
    15:00 +19°C° 0 mm 3 m/s 675 mmHg 47%
    16:00 +19°C° 0 mm 2 m/s 675 mmHg 47%
    17:00 +17°C° 0 mm 2 m/s 675 mmHg 55%
    18:00 +15°C° 0 mm 2 m/s 675 mmHg 63%
    19:00 +13°C° 0 mm 2 m/s 675 mmHg 71%
    20:00 +12°C° 0 mm 3 m/s 675 mmHg 74%
    21:00 +11°C° 0 mm 3 m/s 675 mmHg 77%
    22:00 +10°C° 0 mm 3 m/s 676 mmHg 80%
    23:00 +9°C° 0 mm 3 m/s 676 mmHg 82%

    Après-demain, 24 Avril, Mercredi

    Heure Température Précipitation Vent Pression Humidité
    00:00 +9°C° 0 mm 3 m/s 676 mmHg 83%
    01:00 +9°C° 0 mm 3 m/s 676 mmHg 85%
    02:00 +9°C° 0 mm 3 m/s 677 mmHg 84%
    03:00 +9°C° 0 mm 3 m/s 677 mmHg 84%
    04:00 +9°C° 0 mm 3 m/s 677 mmHg 84%
    05:00 +10°C° 0 mm 3 m/s 678 mmHg 81%
    06:00 +10°C° 0 mm 3 m/s 678 mmHg 78%
    07:00 +11°C° 0 mm 3 m/s 679 mmHg 74%
    08:00 +13°C° 0 mm 3 m/s 680 mmHg 66%
    09:00 +16°C° 0 mm 3 m/s 680 mmHg 58%
    10:00 +18°C° 0 mm 3 m/s 681 mmHg 51%
    11:00 +18°C° 0 mm 4 m/s 681 mmHg 49%
    12:00 +19°C° 0 mm 4 m/s 681 mmHg 48%
    13:00 +19°C° 0 mm 4 m/s 681 mmHg 47%
    14:00 +19°C° 0 mm 4 m/s 681 mmHg 48%
    15:00 +19°C° 0 mm 4 m/s 681 mmHg 49%
    16:00 +19°C° 0 mm 4 m/s 681 mmHg 50%
    17:00 +17°C° 0 mm 4 m/s 681 mmHg 57%
    18:00 +16°C° 0 mm 3 m/s 681 mmHg 63%
    19:00 +13°C° 0 mm 3 m/s 681 mmHg 70%
    20:00 +12°C° 0 mm 3 m/s 681 mmHg 73%
    21:00 +12°C° 0 mm 3 m/s 681 mmHg 77%
    22:00 +11°C° 0 mm 4 m/s 681 mmHg 81%
    23:00 +11°C° 0 mm 4 m/s 681 mmHg 81%

    25 Avril, Jeudi

    Heure Température Précipitation Vent Pression Humidité
    00:00 +11°C° 0 mm 4 m/s 681 mmHg 82%
    01:00 +10°C° 0 mm 4 m/s 681 mmHg 82%
    02:00 +10°C° 0 mm 3 m/s 681 mmHg 83%
    03:00 +10°C° 0 mm 3 m/s 681 mmHg 84%
    04:00 +10°C° 0 mm 3 m/s 682 mmHg 85%
    05:00 +10°C° 0 mm 3 m/s 682 mmHg 82%
    06:00 +12°C° 0 mm 2 m/s 682 mmHg 80%
    07:00 +12°C° 0 mm 2 m/s 683 mmHg 78%
    08:00 +13°C° 0 mm 3 m/s 683 mmHg 69%
    09:00 +16°C° 0 mm 3 m/s 684 mmHg 61%
    10:00 +18°C° 0 mm 4 m/s 684 mmHg 52%
    11:00 +18°C° 0 mm 4 m/s 684 mmHg 49%
    12:00 +19°C° 0 mm 4 m/s 684 mmHg 46%
    13:00 +20°C° 0 mm 4 m/s 683 mmHg 44%
    14:00 +20°C° 0 mm 4 m/s 683 mmHg 43%
    15:00 +20°C° 0 mm 4 m/s 683 mmHg 42%
    16:00 +20°C° 0 mm 4 m/s 683 mmHg 41%
    17:00 +18°C° 0 mm 3 m/s 682 mmHg 48%
    18:00 +16°C° 0 mm 3 m/s 682 mmHg 55%
    19:00 +14°C° 0 mm 3 m/s 682 mmHg 62%
    20:00 +13°C° 0 mm 3 m/s 682 mmHg 67%
    21:00 +12°C° 0 mm 3 m/s 682 mmHg 72%
    22:00 +11°C° 0 mm 3 m/s 682 mmHg 77%
    23:00 +10°C° 0 mm 3 m/s 682 mmHg 79%

    26 Avril, Vendredi

    Heure Température Précipitation Vent Pression Humidité
    00:00 +10°C° 0 mm 3 m/s 682 mmHg 80%
    01:00 +9°C° 0 mm 3 m/s 682 mmHg 81%
    02:00 +9°C° 0 mm 3 m/s 681 mmHg 82%
    03:00 +8°C° 0 mm 3 m/s 681 mmHg 84%
    04:00 +8°C° 0 mm 3 m/s 681 mmHg 85%
    05:00 +9°C° 0 mm 2 m/s 681 mmHg 81%
    06:00 +10°C° 0 mm 2 m/s 682 mmHg 76%
    07:00 +12°C° 0 mm 2 m/s 682 mmHg 72%
    08:00 +13°C° 0.3 mm 2 m/s 683 mmHg 68%
    09:00 +14°C° 0.3 mm 2 m/s 683 mmHg 65%
    10:00 +15°C° 0.3 mm 2 m/s 684 mmHg 62%
    11:00 +12°C° 2.1 mm 2 m/s 684 mmHg 72%
    12:00 +9°C° 2.1 mm 3 m/s 684 mmHg 81%
    13:00 +5°C° 2.1 mm 3 m/s 684 mmHg 91%
    14:00 +5°C° 1.5 mm 3 m/s 684 mmHg 90%
    15:00 +5°C° 1.5 mm 2 m/s 684 mmHg 90%
    16:00 +5°C° 1.5 mm 2 m/s 684 mmHg 90%
    17:00 +4°C° 0.8 mm 2 m/s 685 mmHg 91%
    18:00 +4°C° 0.8 mm 2 m/s 685 mmHg 93%
    19:00 +4°C° 0.8 mm 2 m/s 685 mmHg 94%
    20:00 +3°C° 0.4 mm 2 m/s 686 mmHg 94%
    21:00 +3°C° 0.4 mm 2 m/s 686 mmHg 94%
    22:00 +3°C° 0.4 mm 2 m/s 686 mmHg 94%
    23:00 +3°C° 0.4 mm 2 m/s 686 mmHg 94%

    27 Avril, Samedi

    Heure Température Précipitation Vent Pression Humidité
    00:00 +3°C° 0.4 mm 2 m/s 687 mmHg 94%
    01:00 +3°C° 0.4 mm 2 m/s 687 mmHg 94%
    02:00 +3°C° 0.5 mm 2 m/s 687 mmHg 94%
    03:00 +3°C° 0.5 mm 2 m/s 687 mmHg 94%
    04:00 +3°C° 0.5 mm 2 m/s 688 mmHg 94%
    05:00 +3°C° 0.3 mm 2 m/s 688 mmHg 93%
    06:00 +4°C° 0.3 mm 2 m/s 689 mmHg 92%
    07:00 +4°C° 0.3 mm 2 m/s 689 mmHg 91%
    08:00 +5°C° 0 mm 2 m/s 689 mmHg 89%
    09:00 +6°C° 0 mm 2 m/s 689 mmHg 87%
    10:00 +7°C° 0 mm 2 m/s 689 mmHg 85%
    11:00 +8°C° 0 mm 2 m/s 689 mmHg 83%
    12:00 +9°C° 0 mm 2 m/s 689 mmHg 82%
    13:00 +11°C° 0 mm 1 m/s 689 mmHg 80%
    14:00 +11°C° 0 mm 1 m/s 689 mmHg 79%
    15:00 +11°C° 0 mm 1 m/s 689 mmHg 79%
    16:00 +11°C° 0 mm 1 m/s 689 mmHg 78%
    17:00 +10°C° 0 mm 1 m/s 689 mmHg 82%
    18:00 +8°C° 0 mm 1 m/s 689 mmHg 85%
    19:00 +7°C° 0 mm 1 m/s 689 mmHg 89%
    20:00 +6°C° 0 mm 1 m/s 690 mmHg 89%
    21:00 +5°C° 0 mm 1 m/s 690 mmHg 89%
    22:00 +4°C° 0 mm 1 m/s 691 mmHg 89%
    23:00 +4°C° 0 mm 1 m/s 691 mmHg 87%
    Voir plus